📊 Raw Sensor Data
Showing records 34826 to 34850 of 84,866 total
| ID | Distance (ft) | Battery V | Battery A | Int Temp (°F) | Int Humid (%) | Ext Temp (°F) | Solar V | RSSI | SNR | Time Stamp |
|---|---|---|---|---|---|---|---|---|---|---|
| 50053 | 15.4 | 3.76 | -5 | 73 | 49 | 73 | 0.00 | -69 | 8 | 08/23/2025 09:00 PM |
| 50052 | 15.3 | 3.60 | -5 | 75 | 50 | 74 | 0.00 | -69 | 8 | 08/23/2025 08:45 PM |
| 50051 | 15.4 | 3.76 | -5 | 75 | 51 | 75 | 0.00 | -70 | 8 | 08/23/2025 08:30 PM |
| 50050 | 15.3 | 3.60 | -5 | 76 | 52 | 76 | 0.10 | -69 | 8 | 08/23/2025 08:15 PM |
| 50049 | 15.4 | 3.60 | -5 | 78 | 54 | 76 | 0.90 | -69 | 8 | 08/23/2025 08:00 PM |
| 50048 | 15.4 | 3.84 | 5 | 85 | 54 | 79 | 4.50 | -70 | 8 | 08/23/2025 07:30 PM |
| 50047 | 15.6 | 3.94 | 0 | 87 | 57 | 80 | 4.60 | -70 | 8 | 08/23/2025 07:15 PM |
| 50046 | 15.4 | 3.74 | 0 | 93 | 54 | 85 | 5.10 | -71 | 8 | 08/23/2025 07:00 PM |
| 50045 | 15.5 | 3.74 | 0 | 97 | 54 | 87 | 5.10 | -70 | 8 | 08/23/2025 06:45 PM |
| 50044 | 15.6 | 3.87 | 0 | 100 | 52 | 90 | 5.10 | -70 | 8 | 08/23/2025 06:30 PM |
| 50043 | 15.5 | 3.74 | 0 | 103 | 51 | 92 | 5.10 | -69 | 8 | 08/23/2025 06:15 PM |
| 50042 | 15.6 | 3.74 | 0 | 106 | 50 | 97 | 5.10 | -70 | 8 | 08/23/2025 06:00 PM |
| 50041 | 15.6 | 3.86 | 0 | 107 | 49 | 95 | 5.10 | -69 | 8 | 08/23/2025 05:45 PM |
| 50040 | 15.6 | 3.95 | 0 | 110 | 47 | 98 | 5.10 | -68 | 8 | 08/23/2025 05:30 PM |
| 50039 | 15.7 | 3.75 | 0 | 109 | 47 | 98 | 5.10 | -69 | 8 | 08/23/2025 05:15 PM |
| 50038 | 15.6 | 3.75 | 0 | 109 | 48 | 100 | 5.10 | -69 | 8 | 08/23/2025 05:00 PM |
| 50037 | 15.6 | 3.75 | 0 | 109 | 47 | 98 | 5.10 | -71 | 8 | 08/23/2025 04:45 PM |
| 50036 | 15.7 | 3.75 | 0 | 109 | 47 | 98 | 5.10 | -69 | 8 | 08/23/2025 04:30 PM |
| 50035 | 15.6 | 3.75 | 0 | 110 | 46 | 98 | 5.10 | -70 | 7 | 08/23/2025 04:15 PM |
| 50034 | 15.7 | 3.75 | 0 | 110 | 45 | 99 | 5.20 | -70 | 8 | 08/23/2025 04:00 PM |
| 50033 | 15.6 | 3.75 | 0 | 112 | 44 | 100 | 5.10 | -70 | 8 | 08/23/2025 03:45 PM |
| 50032 | 15.6 | 3.75 | 0 | 111 | 43 | 100 | 5.10 | -69 | 8 | 08/23/2025 03:30 PM |
| 50031 | 15.6 | 3.75 | 0 | 110 | 43 | 101 | 5.10 | -69 | 7 | 08/23/2025 03:15 PM |
| 50030 | 15.6 | 3.76 | 0 | 109 | 43 | 96 | 5.10 | -70 | 8 | 08/23/2025 03:00 PM |
| 50029 | 15.6 | 3.92 | 0 | 109 | 43 | 98 | 5.10 | -70 | 8 | 08/23/2025 02:45 PM |